Location: Goll?ig?dem
(16.6773°N, 80.7332°E)
Time: 19:04:36
(UTC+00:00)

SJ-6B - Pass Details

Date: 19 May 2025
Orbit: 468 x 518 km, 97.4° (Epoch: 22 June)

Event Time Altitude Azimuth Distance (km) Brightness Sun altitude
Exits shadow 14:12:29 15° 175° (S) 1,370 4.5 -16.2°
Maximum altitude 14:15:21 73° 259° (W) 518 2.7 -16.8°
Drops below altitude 10° 14:19:00 10° 344° (NNW) 1,701 5.9 -17.6°
Sets 14:21:06 0° 347° (NNW) 2,594 6.9 -18.0°
